Regional Weather Roundup
Issued by NWS

Home | Current Version | Previous Version | Graphics & Text | Print | Product List | Glossary On
Versions: 1 2 3 4 5 6 7 8 9 10 11 12 13 14 15 16 17 18 19 20 21 22 23 24 25 26 27 28 29 30 31 32 33 34 35 36 37 38 39 40 41 42 43 44 45 46 47 48 49 50
495
ASUS43 KDTX 250210
RWRMI
MICHIGAN HOURLY REGIONAL WEATHER ROUNDUP
NATIONAL WEATHER SERVICE DETROIT/PONTIAC MI
1000 PM EDT SAT JUN 24 2017

NOTE: "FAIR" INDICATES FEW OR NO CLOUDS BELOW 12,000 FEET WITH NO
SIGNIFICANT WEATHER AND/OR OBSTRUCTION TO VISIBILITY.

MIZ047>049-052>055-059>063-066>070-074>076-081>083-250300-
SOUTHEAST LOWER MICHIGAN

CITY           SKY/WX    TMP DP  RH WIND       PRES   REMARKS
ADRIAN         CLEAR     64  50  60 W5        30.01R
ALMA           CLEAR     60  47  61 CALM      29.96S
ANN ARBOR      CLEAR     62  49  62 W7        29.98R
BAD AXE        CLOUDY    61  54  77 W7        29.93R
CARO           CLEAR     56  55  94 CALM      29.94R
DETROIT CITY   CLEAR     69  46  43 W6        29.96R
DETROIT        PTCLDY    67  49  52 W9        29.98R
FLINT          CLEAR     63  46  54 W10       29.97R
GROSSE ILE     CLEAR     67  49  52 NW8       29.97R
HILLSDALE      CLEAR     61  46  59 W3        30.01R
HOWELL         CLEAR     62  46  56 W5        29.99R

CITY           SKY/WX    TMP DP  RH WIND       PRES   REMARKS
JACKSON        CLEAR     63  46  54 W6        30.00R
LAMBERTVILLE   CLEAR     66  50  55 W5        29.99R
LANSING        MOCLDY    65  44  46 W6        29.99R
LAPEER         FAIR      61  54  76 CALM      29.96R
MASON          CLEAR     63  48  58 CALM      29.99R
MONROE         CLEAR     64  52  66 W5        29.98R
PONTIAC        PTCLDY    65  48  54 W10       29.96R
PORT HOPE        N/A     62  56  80 W6        29.91R
PORT HURON     MOCLDY    63  54  72 CALM      29.95R
TRI CITIES     CLEAR     62  59  90 W3        29.95R
MIDLAND        FAIR      58  57  96 W5        29.94R
TROY           CLEAR     69  44  41 W7        29.99R
SAGINAW HB     PTCLDY    61  55  82 S5        29.95R
$$
MIZ043>046-050>051-056>058-064>065-071>073-077>080-250300-
SOUTHWEST LOWER MICHIGAN

CITY           SKY/WX    TMP DP  RH WIND       PRES   REMARKS
BATTLE CREEK   PTCLDY    62  48  60 W6        30.01R
BENTON HARBOR  CLEAR     65  52  62 W7        30.02R
BIG RAPIDS     CLOUDY    60  48  65 SW3       29.96R
COLDWATER      PTCLDY    62  47  58 W5        30.01R
FREMONT        FAIR      62  47  58 W5        29.97S
HOLLAND        PTCLDY    62  52  69 SW5       30.00R
GRAND RAPIDS   MOCLDY    65  45  48 W9        29.99R
IONIA          MOCLDY    62  47  57 SW6       29.98R
KALAMAZOO      PTCLDY    64  44  48 W3        30.01R
LUDINGTON      CLOUDY    61  53  73 W8        29.94S
MARSHALL       CLEAR     61  47  59 CALM      30.00R
MOUNT PLEASANT CLEAR     60  47  62 CALM      29.95R
MUSKEGON       PTCLDY    64  50  60 W8        29.98R
SOUTH HAVEN    CLEAR     64  54  69 NW3       30.01R
$$
MIZ016>042-250300-
NORTHERN LOWER MICHIGAN

CITY           SKY/WX    TMP DP  RH WIND       PRES   REMARKS
ALPENA         RAIN      57  55  93 SW6       29.92R FOG
BEAVER ISLAND  LGT RAIN  57  55  94 CALM      29.92R
BELLAIRE       CLOUDY    60  55  82 CALM      29.93R
CADILLAC       CLEAR     56  49  78 W6        29.95R
CHARLEVOIX     CLOUDY    58  57  97 W5        29.95R
FRANKFORT      MOCLDY    59  54  84 CALM      29.93S
GAYLORD        CLOUDY    59  54  83 W9        29.93R
GRAYLING       FOG       54  53  98 CALM      29.94S VSB 3/4
HARBOR SPRINGS CLOUDY    58  58 100 CALM      29.92R
HOUGHTON LAKE  MOCLDY    59  55  87 W3        29.95R
MANISTEE       CLEAR     58  54  86 CALM      29.94S
OSCODA         MOCLDY    58  56  92 CALM      29.92R
PELLSTON       CLOUDY    60  53  77 CALM      29.91R
ROGERS CITY    CLOUDY    57  55  90 W3        29.91R
TRAVERSE CITY  MOCLDY    61  53  75 W7        29.92R
$$
MIZ007>008-015-250300-
EASTERN UPPER MICHIGAN

CITY           SKY/WX    TMP DP  RH WIND       PRES   REMARKS
KINROSS        CLOUDY    55  45  68 NW8       29.90R
MACKINAC ISLAN CLOUDY    58  50  75 N5        29.90R
NEWBERRY       CLOUDY    54  52  93 N6        29.91R
S. S. MARIE    CLOUDY    54  47  77 W7        29.89R
MUNISING         N/A     54  54 100 NE13      29.92R
$$
MIZ004>006-011>014-085-250300-
CENTRAL UPPER MICHIGAN

CITY           SKY/WX    TMP DP  RH WIND       PRES   REMARKS
MANISTIQUE     LGT RAIN  54  51  89 N3        29.91R
ESCANABA       LGT RAIN  55  55 100 N3        29.91S
MENOMINEE      HVY RAIN  56  53  90 N6        29.96R
SAWYER-GWINN   LGT RAIN  54  50  87 CALM      29.92S
$$
MIZ001>003-009>011-084-250300-
WESTERN UPPER MICHIGAN

CITY           SKY/WX    TMP DP  RH WIND       PRES   REMARKS
IRON MOUNTAIN  CLOUDY    53  50  89 NW5       29.91F
HOUGHTON       CLOUDY    52  50  93 NW7       29.91S FOG
COPPER HARBOR    N/A     51  50  96 N3        29.91S
IRONWOOD       LGT RAIN  54  52  93 CALM      29.94F
$$

ABBREVIATIONS USED IN REMARKS
   TC - TEMPERATURE IN CELSIUS
  WCI - WIND CHILL INDEX
   HX - HEAT INDEX
  VSB - VISIBILITY





USA.gov is the U.S. government's official web portal to all federal, state and local government web resources and services.